Weather History for KPSC - August, 2014

Change the Weather History Date:

Saturday, August 16, 2014

  Actual Average Record
Temperature  
Mean Temperature 75 °F 73 °F  
Max Temperature 89 °F 90 °F 104 °F (2008)
Min Temperature 60 °F 56 °F 44 °F (2011)
Degree Days  
Heating Degree Days 0 0  
Month to date heating degree days 0 0  
Since 1 June heating degree days 18 37  
Since 1 July heating degree days 0 5  
Cooling Degree Days 10 8  
Month to date cooling degree days 216 151  
Year to date cooling degree days 797 561  
Since 1 June cooling degree days 763 528  
Growing Degree Days 24 (Base 50)    
Moisture  
Dew Point 60 °F    
Average Humidity 68    
Maximum Humidity 100    
Minimum Humidity 36    
Precipitation  
Precipitation 0.00 in 0.01 in 0.38 in (1972)
Month to date precipitation 0.47 0.11  
Year to date precipitation 3.06 5.32  
Snow  
Snow 0.00 in - - ()
Snow Depth 0.00 in    
Sea Level Pressure  
Sea Level Pressure 29.99 in    
Wind  
Wind Speed 2 mph (NNE)    
Max Wind Speed 12 mph    
Max Gust Speed 14 mph    
Visibility 10 miles    
Events      
T = Trace of Precipitation, MM = Missing Value Source: NWS Daily Summary

Daily Weather History Graph

Daily Weather History Graph

Search for Another Location

Airport or City:

Trip Planner

Search our weather history database for the weather conditions in past years. The results will help you decide how hot, cold, wet, or windy it might be!

Date:

Astronomy

Aug. 16, 2014 Rise Set
Actual Time 5:56 AM PDT 8:03 PM PDT
Civil Twilight 5:24 AM PDT 8:36 PM PDT
Nautical Twilight 4:43 AM PDT 9:16 PM PDT
Astronomical Twilight 3:58 AM PDT 10:01 PM PDT
Moon 11:24 PM PDT (8/16) 1:13 PM PDT (8/16)
Length of Visible Light 15h 12m
Length of Day
14h 06m
Waning Gibbous, 58% of the Moon is Illuminated
Aug 16
Waning Gibbous
Aug 17
Last Quarter
Aug 25
New
Sep 2
First Quarter
Sep 8
Full

Hourly Weather History & Observations

Time (PDT) Temp. Heat Index Dew Point Humidity Pressure Visibility Wind Dir Wind Speed Gust Speed Precip Events Conditions
12:53 AM 69.1 °F - 62.1 °F 78% 29.97 in 10.0 mi Calm Calm - N/A   Scattered Clouds
1:53 AM 69.1 °F - 61.0 °F 75% 29.98 in 10.0 mi Calm Calm - N/A   Clear
2:53 AM 66.0 °F - 61.0 °F 84% 29.99 in 10.0 mi Calm Calm - N/A   Clear
3:53 AM 62.1 °F - 60.1 °F 93% 29.99 in 10.0 mi Calm Calm - N/A   Clear
4:53 AM 61.0 °F - 60.1 °F 97% 30.01 in 10.0 mi NNE 3.5 mph - N/A   Clear
5:53 AM 61.0 °F - 60.1 °F 97% 30.02 in 10.0 mi ENE 3.5 mph - N/A   Clear
6:53 AM 64.0 °F - 61.0 °F 90% 30.03 in 10.0 mi Calm Calm - N/A   Clear
7:53 AM 66.9 °F - 61.0 °F 81% 30.04 in 10.0 mi Calm Calm - N/A   Clear
8:53 AM 72.0 °F - 60.1 °F 66% 30.04 in 10.0 mi SE 4.6 mph - N/A   Clear
9:53 AM 75.0 °F - 60.1 °F 60% 30.04 in 10.0 mi Calm Calm - N/A   Clear
10:53 AM 79.0 °F - 59.0 °F 50% 30.03 in 10.0 mi Calm Calm - N/A   Clear
11:53 AM 81.0 °F 81.6 °F 60.1 °F 49% 30.02 in 10.0 mi Variable 3.5 mph - N/A   Clear
12:53 PM 84.0 °F 83.8 °F 59.0 °F 43% 30.01 in 10.0 mi West 8.1 mph - N/A   Clear
1:53 PM 84.9 °F 83.9 °F 57.0 °F 38% 29.99 in 10.0 mi Calm Calm - N/A   Clear
2:53 PM 87.1 °F 85.9 °F 57.0 °F 36% 29.97 in 10.0 mi West 5.8 mph - N/A   Clear
3:53 PM 87.1 °F 86.1 °F 57.9 °F 37% 29.96 in 10.0 mi Variable 4.6 mph - N/A   Clear
4:53 PM 88.0 °F 87.6 °F 60.1 °F 39% 29.94 in 10.0 mi North 9.2 mph - N/A   Clear
5:53 PM 88.0 °F 86.9 °F 57.9 °F 36% 29.94 in 10.0 mi NNE 8.1 mph - N/A   Clear
6:53 PM 86.0 °F 85.0 °F 57.9 °F 38% 29.93 in 10.0 mi NNE 5.8 mph - N/A   Clear
7:53 PM 82.9 °F 82.8 °F 59.0 °F 44% 29.93 in 10.0 mi East 4.6 mph - N/A   Clear
8:53 PM 78.1 °F - 63.0 °F 60% 29.95 in 10.0 mi Calm Calm - N/A   Clear
9:53 PM 72.0 °F - 64.9 °F 78% 29.95 in 10.0 mi NNE 3.5 mph - N/A   Clear
10:53 PM 66.9 °F - 64.0 °F 90% 29.96 in 10.0 mi NNW 11.5 mph - N/A   Clear